TimeEDT,TemperatureF,Dew PointF,Humidity,Sea Level PressureIn,VisibilityMPH,Wind Direction,Wind SpeedMPH,Gust SpeedMPH,PrecipitationIn,Events,Conditions,WindDirDegrees,DateUTC
12:53 AM,66.9,64.0,90,30.04,10.0,NE,5.8,-,N/A,,Clear,50,2012-10-26 04:53:00
1:53 AM,66.9,64.0,90,30.02,10.0,NE,6.9,-,N/A,,Clear,40,2012-10-26 05:53:00
2:53 AM,66.0,63.0,90,30.01,10.0,NNE,6.9,-,N/A,,Clear,30,2012-10-26 06:53:00
3:53 AM,64.9,63.0,93,29.99,10.0,NNE,8.1,-,N/A,,Clear,30,2012-10-26 07:53:00
4:53 AM,64.0,61.0,90,29.99,10.0,NNE,6.9,-,N/A,,Clear,30,2012-10-26 08:53:00
5:53 AM,63.0,60.1,90,29.99,10.0,NNE,8.1,-,N/A,,Clear,30,2012-10-26 09:53:00
6:53 AM,63.0,57.9,84,29.99,10.0,NNE,9.2,-,N/A,,Clear,30,2012-10-26 10:53:00
7:53 AM,62.1,55.9,80,29.99,10.0,NNE,9.2,-,N/A,,Clear,30,2012-10-26 11:53:00
8:53 AM,63.0,55.9,78,30.00,10.0,NNE,9.2,-,N/A,,Clear,30,2012-10-26 12:53:00
9:53 AM,66.9,57.9,73,30.00,10.0,NNE,9.2,-,N/A,,Clear,20,2012-10-26 13:53:00
10:53 AM,69.1,60.1,73,30.00,10.0,NNE,12.7,21.9,N/A,,Clear,30,2012-10-26 14:53:00
11:53 AM,72.0,61.0,68,29.98,10.0,NNE,9.2,20.7,N/A,,Clear,20,2012-10-26 15:53:00
12:53 PM,71.1,62.1,73,29.95,10.0,North,16.1,21.9,N/A,,Clear,10,2012-10-26 16:53:00
1:53 PM,72.0,62.1,71,29.92,7.0,NNE,12.7,23.0,N/A,,Clear,30,2012-10-26 17:53:00
2:53 PM,73.9,63.0,68,29.89,10.0,NNE,12.7,21.9,N/A,,Clear,20,2012-10-26 18:53:00
3:53 PM,73.9,63.0,68,29.88,10.0,NNE,13.8,20.7,N/A,,Clear,30,2012-10-26 19:53:00
4:53 PM,72.0,64.0,76,29.86,7.0,North,13.8,19.6,N/A,,Clear,10,2012-10-26 20:53:00
5:53 PM,71.1,64.0,78,29.85,7.0,North,9.2,-,N/A,,Clear,10,2012-10-26 21:53:00
6:53 PM,71.1,64.0,78,29.86,10.0,NNE,10.4,18.4,N/A,,Scattered Clouds,20,2012-10-26 22:53:00
7:53 PM,70.0,64.0,81,29.85,10.0,NNE,12.7,19.6,N/A,,Overcast,20,2012-10-26 23:53:00
9:53 PM,70.0,63.0,78,29.84,10.0,NNE,13.8,26.5,N/A,,Mostly Cloudy,30,2012-10-27 01:53:00
10:53 PM,69.1,64.9,87,29.82,10.0,NNE,12.7,19.6,0.00,,Overcast,30,2012-10-27 02:53:00
11:53 PM,68.0,64.0,87,29.80,10.0,NNE,11.5,-,N/A,,Scattered Clouds,20,2012-10-27 03:53:00